Home   Weather   Mumbai   Past weeks

Flag for India Past Weather in Mumbai, Maharashtra, India — Yesterday and Last 2 Weeks

86 °F

Passing clouds.

Feels Like: 89 °F
Forecast: 78 / 85 °F
Wind: 5 mph from Northwest

Location: Mumbai / Santacruz

Current Time: Oct 24, 2016 at 10:50:09 AM

Latest Report: Oct 24, 2016 at 10:30 AM

Visibility: 2 mi

Pressure: 29.92 "Hg

Humidity: 55%

Dew Point: 68 °F

Location of MumbaiLocation

Past Weather in Mumbai — Graph


Mumbai Temperature Yesterday

Maximum temperature yesterday: 93 °F (at 12:00 PM)
Minimum temperature yesterday: 79 °F (at 6:00 AM)
Average temperature yesterday: 84 °F

High & Low Weather Summary for the Past Weeks

High97 °F (Oct 18, 12:30 PM)94% (Oct 10, 4:00 AM)29.92 "Hg (Oct 10, 4:00 AM)
Low77 °F (Oct 14, 6:30 AM)22% (Oct 18, 12:30 PM)29.71 "Hg (Oct 9, 4:30 PM)
Average85 °F68%29.82 "Hg
* Reported Oct 9 9:30 AM — Oct 24 9:30 AM, Mumbai, Weather by CustomWeather, © 2016

Note: Actual official high and low records may vary slightly from our data, if they occured in-between our weather recording intervals... More about our weather records


Mumbai Weather History for the Previous 24 Hours

Scroll right to see more
Time TempWeatherWind HumidityBarometerVisibility
9:30 AM
Mon, Oct 24
84 °FHaze.5 mph62%29.92 "Hg1 mi
9:00 AM84 °FHaze.9 mph66%29.92 "Hg1 mi
8:30 AM81 °FHaze.3 mph84%29.89 "Hg1 mi
8:00 AM81 °FHaze.No wind79%29.89 "Hg1 mi
7:30 AM79 °FHaze.No wind84%29.89 "Hg1 mi
7:00 AM79 °FHaze.5 mph84%29.86 "Hg1 mi
6:30 AM79 °FHaze.6 mph84%29.86 "Hg1 mi
6:00 AM79 °FHaze.3 mph84%29.86 "Hg1 mi
5:30 AM81 °FHaze.6 mph84%29.83 "Hg1 mi
5:00 AM81 °FHaze.5 mph84%29.83 "Hg1 mi
4:30 AM81 °FHaze.3 mph84%29.83 "Hg1 mi
4:00 AM81 °FHaze.3 mph84%29.83 "Hg1 mi
9:00 PM
Sun, Oct 23
84 °FPassing clouds.7 mph74%29.86 "Hg1 mi
5:30 PM86 °FHaze.12 mph66%29.80 "Hg1 mi
5:00 PM86 °FHaze.9 mph66%29.80 "Hg1 mi
4:30 PM88 °FHaze.10 mph70%29.80 "Hg1 mi
4:00 PM90 °FHaze.12 mph63%29.80 "Hg1 mi
3:30 PM88 °FHaze.12 mph70%29.80 "Hg1 mi
3:00 PM90 °FHaze.13 mph67%29.80 "Hg1 mi
2:30 PM90 °FHaze.14 mph67%29.80 "Hg1 mi
2:00 PM91 °FHaze.13 mph63%29.83 "Hg1 mi
1:30 PM90 °FPassing clouds.12 mph63%29.83 "Hg1 mi
1:00 PM88 °FPassing clouds.10 mph66%29.83 "Hg1 mi
12:30 PM90 °FPassing clouds.9 mph63%29.86 "Hg1 mi
12:00 PM93 °FPassing clouds.3 mph47%29.89 "Hg1 mi
11:30 AM90 °FPassing clouds.7 mph49%29.89 "Hg1 mi
11:00 AM88 °FPassing clouds.3 mph52%29.89 "Hg1 mi
10:30 AM88 °FHaze.6 mph55%29.92 "Hg1 mi
10:00 AM84 °FHaze.5 mph70%29.92 "Hg1 mi
Weather by CustomWeather, © 2016

See weather overviewHow to use our weather pages